This is the latest recevied weather packets stored in our database for station/object KI5UTS-13. If no packets are shown the sender has not sent any weather packets the latest 10 day(s).
| Time | Temp. | Humidity | Pressure | Rain* | Wind** | Luminosity | Snow |
|---|---|---|---|---|---|---|---|
| 1788550652 | 30.56° C | 80% | 1015.1 hPa | 0 mm | - | 722 W/m² | - |
| 1788550348 | 30.56° C | 78% | 1015.2 hPa | 0 mm | - | 732 W/m² | - |
| 1788550043 | 30.56° C | 78% | 1015.4 hPa | 0 mm | - | 736 W/m² | - |
| 1788549738 | 31.11° C | 76% | 1015.5 hPa | 0 mm | - | 747 W/m² | - |
| 1788549435 | 30° C | 80% | 1015.5 hPa | 0 mm | - | 662 W/m² | - |
| 1788549130 | 30.56° C | 81% | 1015.6 hPa | 0 mm | - | 706 W/m² | - |
| 1788548827 | 30° C | 81% | 1015.7 hPa | 0 mm | - | 722 W/m² | - |
| 1788548523 | 29.44° C | 82% | 1015.8 hPa | 0 mm | - | 687 W/m² | - |
| 1788548219 | 29.44° C | 82% | 1016 hPa | 0 mm | - | 779 W/m² | - |
| 1788547914 | 28.89° C | 84% | 1016.2 hPa | 0 mm | - | 823 W/m² | - |
| 1788547612 | 28.33° C | 84% | 1016.3 hPa | 0 mm | - | 597 W/m² | - |
| 1788547308 | 27.22° C | 89% | 1016.3 hPa | 0 mm | - | 826 W/m² | - |
| 1788547003 | 26.67° C | 94% | 1016.5 hPa | 0 mm | - | 776 W/m² | - |
| 1788546697 | 25.56° C | 96% | 1016.5 hPa | 0 mm | - | 377 W/m² | - |
| 1788546392 | 25.56° C | 97% | 1016.6 hPa | 0 mm | - | 378 W/m² | - |
| 1788546087 | 25.56° C | 98% | 1016.8 hPa | 0 mm | - | 346 W/m² | - |
| 1788545783 | 25.56° C | 98% | 1016.8 hPa | 0 mm | - | 382 W/m² | - |
| 1788545478 | 26.11° C | 99% | 1016.9 hPa | 0 mm | - | 333 W/m² | - |
| 1788545174 | 25.56° C | 99% | 1017.2 hPa | 0 mm | - | 337 W/m² | - |
| 1788544869 | 25.56° C | 98% | 1017.1 hPa | 0 mm | - | 367 W/m² | - |
| 1788544568 | 25.56° C | 99% | 1017.1 hPa | 0 mm | - | 327 W/m² | - |
| 1788544267 | 25.56° C | 99% | 1017.2 hPa | 0 mm | - | 330 W/m² | - |
| 1788543961 | 25.56° C | 99% | 1017.4 hPa | 0 mm | - | 315 W/m² | - |
| 1788543658 | 25° C | 99% | 1017.2 hPa | 0 mm | - | 290 W/m² | - |
| 1788543358 | 25.56° C | 99% | 1017.4 hPa | 0 mm | - | 276 W/m² | - |
* Rain latest hour (hover to see other rain measurements)
** Current wind speed in m/s (hover to see current wind gust speed)